Location: Gajan
(43.0218°N, 1.1244°E)
Time: 17:00:28
(UTC+00:00)

N. Korean satellite - Visible Passes

Search period start: 26 September 2021 00:00
Search period end: 06 October 2021 00:00
Orbit: 449 x 498 km, 97.3° (Epoch: 25 September)

Date Brightness Start Highest point End Pass type
(mag) Time Alt. Az. Time Alt. Az. Time Alt. Az.
26 Sep 8.8 04:39:21 10° NE 04:42:28 28° E 04:45:36 10° SSE visible
27 Sep 9.9 04:12:41 10° ENE 04:14:30 13° E 04:16:18 10° ESE visible
28 Sep 6.6 05:16:33 10° NNE 05:20:08 89° E 05:23:45 10° SSW visible
29 Sep 8.2 04:48:55 10° NNE 04:52:17 37° E 04:55:40 10° SSE visible
30 Sep 9.7 04:21:49 10° NE 04:24:19 17° E 04:26:48 10° SE visible
02 Oct 7.6 04:58:27 10° NNE 05:01:59 51° E 05:05:31 10° S visible
03 Oct 9.3 04:31:05 10° NE 04:34:00 23° E 04:36:56 10° SSE visible
04 Oct 10.2 04:05:00 10° ENE 04:05:55 11° E 04:06:50 10° ESE visible
05 Oct 7.0 05:07:56 10° NNE 05:11:33 69° E 05:15:11 10° S visible
